Weather History for KLNR - February, 2014

Change the Weather History Date:

Saturday, February 22, 2014

  Actual Average Record
Temperature  
Mean Temperature 19 °F -  
Max Temperature 26 °F 34 °F 51 °F (1998)
Min Temperature 10 °F 19 °F -5 °F (2008)
Degree Days  
Heating Degree Days 46    
Moisture  
Dew Point 7 °F    
Average Humidity 64    
Maximum Humidity 74    
Minimum Humidity 51    
Precipitation  
Precipitation 0.00 in - - ()
Sea Level Pressure  
Sea Level Pressure 29.98 in    
Wind  
Wind Speed 11 mph (West)    
Max Wind Speed 15 mph    
Max Gust Speed 17 mph    
Visibility 10 miles    
Events      
Averages and records for this station are not official NWS values.
T = Trace of Precipitation, MM = Missing Value Source: NWS Daily Summary

Daily Weather History Graph

Daily Weather History Graph

Search for Another Location

Airport or City:

Trip Planner

Search our weather history database for the weather conditions in past years. The results will help you decide how hot, cold, wet, or windy it might be!

Date:

Astronomy

Feb. 22, 2014 Rise Set
Actual Time 6:48 AM CST 5:40 PM CST
Civil Twilight 6:19 AM CST 6:09 PM CST
Nautical Twilight 5:46 AM CST 6:42 PM CST
Astronomical Twilight 5:13 AM CST 7:15 PM CST
Moon 12:47 AM CST (2/22) 10:47 AM CST (2/22)
Length of Visible Light 11h 50m
Length of Day
10h 52m
Waning Gibbous, 50% of the Moon is Illuminated
Feb 22
Waning Gibbous
Mar 1
New
Mar 8
First Quarter
Mar 16
Full
Mar 23
Last Quarter

Hourly Weather History & Observations

Time (CST) Temp. Windchill Dew Point Humidity Pressure Visibility Wind Dir Wind Speed Gust Speed Precip Events Conditions
12:56 AM 17.1 °F 3.6 °F 9.0 °F 71% 29.81 in 10.0 mi West 12.7 mph - N/A   Clear
1:56 AM 16.0 °F 2.9 °F 8.1 °F 71% 29.84 in 10.0 mi West 11.5 mph - N/A   Clear
2:56 AM 16.0 °F 2.9 °F 8.1 °F 71% 29.85 in 10.0 mi West 11.5 mph - N/A   Clear
3:56 AM 15.1 °F 1.1 °F 7.0 °F 70% 29.87 in 10.0 mi West 12.7 mph - N/A   Clear
4:56 AM 14.0 °F 1.2 °F 6.1 °F 71% 29.89 in 10.0 mi West 10.4 mph - N/A   Clear
5:56 AM 12.9 °F 0.7 °F 6.1 °F 74% 29.91 in 10.0 mi West 9.2 mph - N/A   Clear
6:56 AM 12.9 °F 0.7 °F 5.0 °F 71% 29.93 in 10.0 mi West 9.2 mph - N/A   Clear
7:56 AM 12.0 °F 0.5 °F 5.0 °F 73% 29.97 in 10.0 mi WSW 8.1 mph - N/A   Clear
8:56 AM 16.0 °F 2.9 °F 6.1 °F 65% 29.99 in 10.0 mi West 11.5 mph 17.3 mph N/A   Clear
9:56 AM 19.0 °F 8.2 °F 7.0 °F 59% 30.00 in 10.0 mi West 9.2 mph - N/A   Clear
10:56 AM 21.0 °F 10.6 °F 9.0 °F 60% 30.00 in 10.0 mi West 9.2 mph - N/A   Clear
11:56 AM 21.9 °F 9.2 °F 9.0 °F 58% 30.01 in 10.0 mi WSW 13.8 mph - N/A   Clear
12:56 PM 24.1 °F 12.0 °F 9.0 °F 53% 29.99 in 10.0 mi West 13.8 mph - N/A   Clear
1:56 PM 25.0 °F 13.1 °F 10.0 °F 53% 29.98 in 10.0 mi West 13.8 mph - N/A   Clear
2:56 PM 26.1 °F 15.6 °F 10.0 °F 51% 29.97 in 10.0 mi West 11.5 mph - N/A   Clear
3:56 PM 25.0 °F 12.6 °F 9.0 °F 51% 29.99 in 10.0 mi West 15.0 mph - N/A   Clear
4:56 PM 24.1 °F 12.5 °F 9.0 °F 53% 29.99 in 10.0 mi West 12.7 mph - N/A   Clear
5:56 PM 21.0 °F 9.3 °F 8.1 °F 57% 30.03 in 10.0 mi West 11.5 mph - N/A   Clear
6:56 PM 19.0 °F 7.5 °F 7.0 °F 59% 30.06 in 10.0 mi West 10.4 mph - N/A   Clear
7:56 PM 16.0 °F 8.8 °F 7.0 °F 68% 30.08 in 10.0 mi West 4.6 mph - N/A   Clear
8:56 PM 14.0 °F 5.1 °F 6.1 °F 71% 30.11 in 10.0 mi West 5.8 mph - N/A   Clear
9:56 PM 12.9 °F 2.6 °F 3.9 °F 67% 30.12 in 10.0 mi West 6.9 mph - N/A   Clear
10:56 PM 12.0 °F 1.5 °F 3.0 °F 67% 30.12 in 10.0 mi West 6.9 mph - N/A   Clear
11:56 PM 10.9 °F 1.4 °F 3.0 °F 70% 30.13 in 10.0 mi West 5.8 mph - N/A   Clear